STARLINK-6299, 57358

Orbit data source: Space-Track

STARLINK-6299, 57358 is a payload satellite owned by SpaceX/Seattle (US) in LEO that was launched on Sun, 16 Jul 2023 UTC via an FALCON 9 launch vehicle from the Air Force Eastern Test Range (AFETR). Payload-class satellites include a variety of spacecraft equipped with specific instruments for various scientific and technological missions. These include communications satellites like Starlink; space stations such as the ISS; scientific satellites like the Hubble; Earth observation satellites from companies like Planet Labs, Umbra, and HawkEye 360; GPS; miniature CubeSats for education and research; and military/defense satellites.

Loading next visibility...
Identifier
57358, 2023-099AG
Orbit
LEO
Country
Flag of USUS
Related business
Manufacturer
SpaceX/Seattle
Mission
Operational Commercial Communications
Bus & Motor
STARLINK, Unknown motor
Mass
305 kg wet, ~290 kg dry
Launch date (UTC)
2023-07-16 (3 years ago)
Launch vehicle
FALCON 9
Launch site
Air Force Eastern Test Range (AFETR)
Object type
Payload
Rocket body
Debris
Shape & HBR
Box + 1 Pan, 10.1 m
Radar Cross Section
11.087 m², Large (>1 m²)

Expand to show TLE details & history
Last TLE update: 2 days ago

TLE from 2 days ago
0 STARLINK-6299
1 57358U 23099AG  26171.27715343  .00000719  00000-0  35654-4 0  9994
2 57358  43.0026  21.9087 0000835 274.6266  85.4490 15.27574977162633
Epoch: 2026-06-20T06:39Z
TLE epoch observation values (Epoch: 2026-06-20T06:39:06.056Z)
Latitude
-0.00003°
Longitude
13.63934°
Altitude
482.794 km
Speed
7.626 km/s
True Right ascension
01h 27m 38s
True Declination
0° 00' 00"
Sunlit
Object was in daylight at epoch
Visualization orbit readout
Latitude
Unknown
Longitude
Unknown
Altitude
Unknown
Speed
Unknown
Apparent Right ascension
Unknown
Apparent Declination
Unknown
Sunlit
N/A
Visualization observer readout
Local Sidereal Time
21:28:15
Azimuth
Unknown
Elevation
Unknown
Doppler factor
Unknown
Orbital elements
Apogee altitude
485.582 km
Perigee altitude
484.436 km
Semi-major axis
6,863.146 km
Eccentricity
0.00008
Inclination
43.0026°
RAAN
21.9087°
Arg. of periapsis
274.6266°
True anomaly
85.45854°
Mean anomaly
85.449°
Eccentric anomaly
85.45377°
Mean motion
3.81732 °/min
Orbital period
94.31 mins
BSTAR
0.000035654
Loading maneuver chart data...
Computing Atmospheric mass density...
Loading historical data...
Loading historical data...
Loading historical data...
Loading historical data...
Loading historical data...
Loading historical data...
Loading historical data...

Documentation

Showing up to 5 results
|